Middletown, OH

2:22 AM EDT on March 30, 2017 (GMT -0400)
Hook Field Municipal

Weather History for KMWO - July, 2013

Change the Weather History Date:

Saturday, July 20, 2013

  Actual Average (KFFO) Record (KFFO)
Temperature  
Mean Temperature 78 °F -  
Max Temperature 87 °F 82 °F 95 °F (2011)
Min Temperature 69 °F 61 °F 53 °F (1997)
Cooling Degree Days 13    
Growing Degree Days 28 (Base 50)    
Moisture  
Dew Point 74 °F    
Average Humidity 92    
Maximum Humidity 100    
Minimum Humidity 73    
Precipitation  
Precipitation 0.00 in - - ()
Sea Level Pressure  
Sea Level Pressure 29.92 in    
Wind  
Wind Speed 7 mph (WSW)    
Max Wind Speed 21 mph    
Max Gust Speed 30 mph    
Visibility 10 miles    
Events Rain    
Averages and records for this station are not official NWS values.
T = Trace of Precipitation, MM = Missing Value Source: NWS Daily Summary

Daily Weather History Graph

Daily Weather History Graph

Search for Another Location

Airport or City:

Trip Planner

Search our weather history database for the weather conditions in past years. The results will help you decide how hot, cold, wet, or windy it might be!

Date:

Astronomy

Jul. 20, 2013 Rise Set
Actual Time 6:26 AM EDT 9:00 PM EDT
Civil Twilight 5:55 AM EDT 9:31 PM EDT
Nautical Twilight 5:17 AM EDT 10:10 PM EDT
Astronomical Twilight 4:33 AM EDT 10:53 PM EDT
Moon 7:03 PM EDT (7/20) 4:05 AM EDT (7/20)
Length of Visible Light 15h 35m
Length of Day
14h 33m
Waxing Gibbous, 93% of the Moon is Illuminated
Jul 20
Waxing Gibbous
Jul 22
Full
Jul 29
Last Quarter
Aug 6
New
Aug 14
First Quarter

Hourly Weather History & Observations

Time (EDT) Temp. Heat Index Dew Point Humidity Pressure Visibility Wind Dir Wind Speed Gust Speed Precip Events Conditions
12:15 AM 77.9 °F - 77.0 °F 97% 29.94 in 7.0 mi SW 5.8 mph - N/A   Clear
12:35 AM 77.9 °F - 76.5 °F 95% 29.94 in 10.0 mi SW 6.9 mph - N/A   Clear
12:55 AM 77.9 °F - 76.6 °F 96% 29.95 in 10.0 mi SW 6.9 mph - N/A   Clear
1:15 AM 77.9 °F - 76.1 °F 94% 29.95 in 10.0 mi WSW 8.1 mph - N/A   Clear
1:35 AM 77.9 °F - 75.7 °F 93% 29.94 in 10.0 mi WSW 8.1 mph - N/A   Clear
1:55 AM 76.3 °F - 74.3 °F 94% 29.94 in 10.0 mi SW 8.1 mph - N/A   Clear
2:15 AM 77.4 °F - 74.7 °F 91% 29.93 in 10.0 mi WSW 9.2 mph - N/A   Clear
2:35 AM 77.0 °F - 74.3 °F 91% 29.93 in 10.0 mi SW 8.1 mph - N/A   Clear
2:55 AM 75.7 °F - 73.4 °F 92% 29.92 in 10.0 mi WSW 10.4 mph - N/A   Clear
3:15 AM 75.2 °F - 73.8 °F 95% 29.91 in 10.0 mi SW 9.2 mph - N/A   Clear
3:35 AM 75.2 °F - 74.3 °F 97% 29.91 in 10.0 mi WSW 5.8 mph - N/A   Clear
3:55 AM 75.2 °F - 74.3 °F 97% 29.90 in 10.0 mi WSW 5.8 mph - N/A   Clear
4:15 AM 74.7 °F - 74.3 °F 99% 29.90 in 10.0 mi SW 5.8 mph - N/A   Clear
4:35 AM 73.4 °F - 73.2 °F 99% 29.89 in 10.0 mi WSW 5.8 mph - N/A   Clear
4:55 AM 72.7 °F - 72.7 °F 100% 29.88 in 10.0 mi SW 6.9 mph - N/A   Clear
5:15 AM 72.7 °F - 72.5 °F 99% 29.88 in 10.0 mi WSW 4.6 mph - N/A   Clear
5:35 AM 72.7 °F - 72.7 °F 100% 29.88 in 10.0 mi SW 5.8 mph - N/A   Clear
5:55 AM 72.7 °F - 72.7 °F 100% 29.89 in 10.0 mi WSW 5.8 mph - N/A   Clear
6:15 AM 72.7 °F - 72.7 °F 100% 29.90 in 10.0 mi WSW 4.6 mph - N/A   Clear
6:35 AM 72.7 °F - 72.7 °F 100% 29.90 in 7.0 mi SW 4.6 mph - N/A   Clear
6:55 AM 72.7 °F - 72.7 °F 100% 29.91 in 10.0 mi SW 5.8 mph - N/A   Clear
7:15 AM 73.4 °F - 73.4 °F 100% 29.92 in 10.0 mi SSW 6.9 mph - N/A   Clear
7:35 AM 75.2 °F - 74.5 °F 98% 29.92 in 10.0 mi SW 4.6 mph - N/A   Clear
7:55 AM 75.2 °F - 73.9 °F 96% 29.92 in 10.0 mi SW 9.2 mph - N/A   Clear
8:15 AM 77.9 °F - 75.7 °F 93% 29.92 in 10.0 mi SW 9.2 mph - N/A   Clear
8:35 AM 77.9 °F - 75.2 °F 91% 29.92 in 10.0 mi SW 10.4 mph - N/A   Clear
8:55 AM 77.9 °F - 74.8 °F 90% 29.92 in 10.0 mi SW 9.2 mph - N/A   Clear
9:15 AM 78.6 °F - 75.0 °F 89% 29.92 in 10.0 mi SW 11.5 mph - N/A   Clear
9:35 AM 79.0 °F - 75.0 °F 88% 29.93 in 10.0 mi SW 9.2 mph - N/A   Clear
9:55 AM 80.2 °F 85.7 °F 75.7 °F 86% 29.92 in 10.0 mi SW 8.1 mph - N/A   Clear
10:15 AM 81.0 °F 87.3 °F 75.9 °F 85% 29.92 in 10.0 mi SW 11.5 mph - N/A   Clear
10:35 AM 81.9 °F 89.5 °F 76.5 °F 84% 29.92 in 10.0 mi WSW 12.7 mph 16.1 mph N/A   Clear
10:55 AM 82.8 °F 90.4 °F 75.6 °F 79% 29.92 in 10.0 mi WSW 11.5 mph 17.3 mph N/A   Clear
11:15 AM 85.3 °F 96.7 °F 77.7 °F 78% 29.92 in 10.0 mi WSW 15.0 mph 18.4 mph N/A   Clear
11:35 AM 85.3 °F 96.7 °F 77.7 °F 78% 29.92 in 10.0 mi WSW 11.5 mph - N/A   Scattered Clouds
11:55 AM 86.4 °F 99.9 °F 78.6 °F 78% 29.93 in 10.0 mi WSW 11.5 mph 18.4 mph N/A   Scattered Clouds
12:15 PM 86.2 °F 98.8 °F 78.1 °F 77% 29.93 in 10.0 mi West 8.1 mph 16.1 mph N/A   Mostly Cloudy
12:35 PM 81.9 °F 88.7 °F 75.4 °F 81% 29.93 in 10.0 mi West 8.1 mph - N/A   Overcast
12:55 PM 86.2 °F 99.8 °F 78.8 °F 79% 29.92 in 10.0 mi West 11.5 mph - N/A   Mostly Cloudy
1:15 PM 87.8 °F 103.1 °F 79.3 °F 76% 29.90 in 10.0 mi WSW 10.4 mph - N/A   Scattered Clouds
1:35 PM 87.8 °F 102.5 °F 79.0 °F 75% 29.90 in 10.0 mi WSW 10.4 mph - N/A   Scattered Clouds
1:55 PM 87.8 °F 102.5 °F 79.2 °F 75% 29.89 in 10.0 mi SW 8.1 mph - N/A   Scattered Clouds
2:15 PM 87.8 °F 102.5 °F 79.0 °F 75% 29.89 in 10.0 mi WSW 12.7 mph 17.3 mph N/A   Mostly Cloudy
2:35 PM 87.8 °F 101.3 °F 78.1 °F 73% 29.89 in 10.0 mi WSW 8.1 mph - N/A   Scattered Clouds
2:55 PM 78.3 °F - 73.2 °F 84% 29.89 in 10.0 mi NE 11.5 mph - N/A   Mostly Cloudy
3:15 PM 77.9 °F - 72.3 °F 83% 29.88 in 10.0 mi East 10.4 mph - N/A   Mostly Cloudy
3:35 PM 77.9 °F - 72.7 °F 84% 29.89 in 10.0 mi NNE 8.1 mph - N/A   Mostly Cloudy
3:55 PM 75.2 °F - 70.9 °F 86% 29.92 in 10.0 mi NNW 20.7 mph 29.9 mph N/A   Mostly Cloudy
4:15 PM 69.8 °F - 69.8 °F 100% 29.89 in 2.0 mi NE 13.8 mph 28.8 mph N/A Rain Rain
4:35 PM 72.7 °F - 71.6 °F 96% 29.89 in 10.0 mi Calm Calm - N/A Rain Light Rain
4:55 PM 72.7 °F - 69.3 °F 89% 29.90 in 10.0 mi Calm Calm - N/A   Scattered Clouds
5:15 PM 75.2 °F - 71.4 °F 88% 29.90 in 10.0 mi Calm Calm - N/A   Mostly Cloudy
5:35 PM 75.2 °F - 72.5 °F 91% 29.91 in 10.0 mi Calm Calm - N/A   Mostly Cloudy
5:55 PM 75.2 °F - 72.5 °F 91% 29.92 in 10.0 mi Calm Calm - N/A   Scattered Clouds
6:15 PM 75.2 °F - 73.8 °F 95% 29.92 in 10.0 mi NNE 3.5 mph - N/A   Clear
6:35 PM 75.2 °F - 74.7 °F 98% 29.91 in 10.0 mi Calm Calm - N/A   Clear
6:55 PM 75.2 °F - 75.2 °F 100% 29.91 in 10.0 mi NNE 3.5 mph - N/A   Clear
7:15 PM 75.2 °F - 75.2 °F 100% 29.92 in 10.0 mi NNE 3.5 mph - N/A   Clear
7:35 PM 74.1 °F - 73.9 °F 99% 29.92 in 10.0 mi Calm Calm - N/A   Mostly Cloudy
7:55 PM 75.2 °F - 75.0 °F 99% 29.91 in 10.0 mi Calm Calm - N/A   Overcast
8:15 PM 74.1 °F - 74.1 °F 100% 29.90 in 10.0 mi Calm Calm - N/A   Scattered Clouds
8:35 PM 72.7 °F - 72.7 °F 100% 29.92 in 10.0 mi Calm Calm - N/A   Scattered Clouds
8:55 PM 72.7 °F - 72.0 °F 98% 29.93 in 10.0 mi SW 5.8 mph - N/A   Overcast
9:15 PM 72.7 °F - 70.7 °F 93% 29.94 in 10.0 mi SW 5.8 mph - N/A   Overcast
9:35 PM 72.7 °F - 71.2 °F 95% 29.94 in 10.0 mi WNW 3.5 mph - N/A   Mostly Cloudy
9:55 PM 72.7 °F - 72.3 °F 99% 29.94 in 10.0 mi Calm Calm - N/A   Scattered Clouds
10:15 PM 72.7 °F - 72.7 °F 100% 29.94 in 10.0 mi Calm Calm - N/A   Clear
10:35 PM 72.7 °F - 72.7 °F 100% 29.95 in 10.0 mi Calm Calm - N/A   Scattered Clouds
10:55 PM 72.7 °F - 72.7 °F 100% 29.95 in 10.0 mi Calm Calm - N/A   Scattered Clouds
11:15 PM 72.7 °F - 72.7 °F 100% 29.95 in 10.0 mi Calm Calm - N/A   Clear
11:35 PM 72.7 °F - 72.5 °F 99% 29.95 in 10.0 mi Calm Calm - N/A   Clear
11:55 PM 72.7 °F - 72.7 °F 100% 29.96 in 10.0 mi Calm Calm - N/A   Scattered Clouds